Tracking 27122 objects as of 24-Mar-2023
HD Live streaming from Space Station
objects crossing your sky now

COSMOS 1823 DEB

Track COSMOS 1823 DEB now!
10-day predictions


NORAD ID: 29359
Int'l Code: 1987-020EA
Perigee: 1,486.2 km
Apogee: 1,531.9 km
Inclination: 73.6 °
Period: 116.0 minutes
Semi major axis: 7880 km
RCS: 0.0053 m2 (small)
Launch date: February 20, 1987
Source: Commonwealth of Independent States (former USSR) (CIS)
Launch site: PLESETSK MISSILE AND SPACE COMPLEX (PKMTR)

Note: This is SATELLITE DEBRIS
Your satellite tracking list
Your tracking list is empty




NASA's NSSDC Master Catalog

Two Line Element Set (TLE):
1 29359U 87020EA  23080.14177832 -.00000031  00000-0 -10128-3 0  9992
2 29359  73.6152 211.3766 0029032 131.7092  42.3277 12.41104234381963
Source of the keplerian elements: AFSPC